NGN42P EDDL-EDDH

Flight info

Callsign NGN42P
Flight time N/A
Altitude 31000
Route MEVEL4T MEVEL Y850 BASUM/N0444F300 Y850 PIXUR/N0445F290 Y850 MUBZI M105 RIBSO RIBSO3P
Aircraft A320/M-SDE3FGHIRWY/LB1

Departure

Time 2026-05-04 19:09
Airport Düsseldorf Airport (EDDL)

Arrival

Time N/A
Airport Hamburg Helmut Schmidt Airport (EDDH)
Time Latitude Longitude Altitude Speed Heading
2026-05-04 18:18 51.27942 6.76184 118 ft 0 kts 91°
2026-05-04 18:34 51.27942 6.76157 114 ft 3 kts 91°
2026-05-04 18:34 51.27943 6.76130 115 ft 2 kts 91°
2026-05-04 18:35 51.27943 6.76102 114 ft 2 kts 91°
2026-05-04 18:35 51.27941 6.76074 116 ft 3 kts 57°
2026-05-04 18:35 51.27929 6.76054 116 ft 3 kts 21°
2026-05-04 18:35 51.27915 6.76048 117 ft 0 kts
2026-05-04 18:38 51.27927 6.76049 118 ft 4 kts
2026-05-04 18:38 51.27961 6.76049 118 ft 6 kts
2026-05-04 18:38 51.28009 6.76050 116 ft 8 kts
2026-05-04 18:39 51.28071 6.76046 116 ft 10 kts 350°
2026-05-04 18:39 51.28140 6.76047 114 ft 11 kts 34°
2026-05-04 18:39 51.28191 6.76152 118 ft 13 kts 53°
2026-05-04 18:39 51.28250 6.76276 118 ft 15 kts 53°
2026-05-04 18:40 51.28319 6.76423 116 ft 18 kts 51°
2026-05-04 18:40 51.28388 6.76563 117 ft 1 kts 52°
2026-05-04 18:40 51.28425 6.76640 115 ft 18 kts 52°
2026-05-04 18:40 51.28507 6.76811 118 ft 20 kts 53°
2026-05-04 18:41 51.28597 6.77000 118 ft 22 kts 53°
2026-05-04 18:41 51.28696 6.77209 115 ft 25 kts 53°
2026-05-04 18:41 51.28798 6.77424 116 ft 23 kts 53°
2026-05-04 18:41 51.28879 6.77594 116 ft 19 kts 52°
2026-05-04 18:42 51.28965 6.77771 118 ft 21 kts 52°
2026-05-04 18:42 51.29053 6.77957 117 ft 21 kts 52°
2026-05-04 18:42 51.29142 6.78143 115 ft 22 kts 53°
2026-05-04 18:42 51.29218 6.78303 117 ft 16 kts 52°
2026-05-04 18:43 51.29272 6.78417 116 ft 10 kts 53°
2026-05-04 18:43 51.29278 6.78431 117 ft 0 kts 53°
2026-05-04 18:44 51.29285 6.78446 118 ft 3 kts 53°
2026-05-04 18:44 51.29288 6.78452 118 ft 0 kts 53°
2026-05-04 18:47 51.29292 6.78460 118 ft 2 kts 53°
2026-05-04 18:48 51.29305 6.78488 116 ft 4 kts 53°
2026-05-04 18:48 51.29320 6.78521 118 ft 2 kts 53°
2026-05-04 18:48 51.29330 6.78539 116 ft 0 kts 47°
2026-05-04 18:54 51.29332 6.78543 115 ft 1 kts 47°
2026-05-04 18:54 51.29338 6.78551 115 ft 0 kts 41°
2026-05-04 18:59 51.29339 6.78552 115 ft 1 kts 41°
2026-05-04 19:00 51.29350 6.78562 116 ft 3 kts 29°
2026-05-04 19:00 51.29377 6.78573 115 ft 4 kts
2026-05-04 19:00 51.29390 6.78573 118 ft 0 kts
2026-05-04 19:05 51.29393 6.78573 118 ft 2 kts
2026-05-04 19:05 51.29412 6.78572 118 ft 4 kts 357°
2026-05-04 19:05 51.29438 6.78568 118 ft 3 kts 354°
2026-05-04 19:05 51.29440 6.78568 118 ft 0 kts 354°
2026-05-04 19:08 51.29443 6.78567 114 ft 4 kts 354°
2026-05-04 19:08 51.29502 6.78549 116 ft 10 kts 329°
2026-05-04 19:08 51.29505 6.78447 115 ft 11 kts 231°
2026-05-04 19:08 51.29469 6.78363 116 ft 6 kts 234°
2026-05-04 19:09 51.29363 6.78140 117 ft 59 kts 233°
2026-05-04 19:09 51.28977 6.77326 115 ft 121 kts 233°
2026-05-04 19:09 51.28391 6.76091 359 ft 143 kts 231°
2026-05-04 19:09 51.27776 6.74776 818 ft 151 kts 230°
2026-05-04 19:10 51.27121 6.73449 1307 ft 157 kts 229°
2026-05-04 19:10 51.26467 6.71993 1729 ft 171 kts 248°
2026-05-04 19:10 51.26562 6.70010 1967 ft 198 kts 299°
2026-05-04 19:10 51.27609 6.68583 2565 ft 201 kts 330°
2026-05-04 19:11 51.28958 6.67980 3189 ft 206 kts 360°
2026-05-04 19:11 51.30430 6.68317 3542 ft 226 kts 10°
2026-05-04 19:11 51.32069 6.68710 3891 ft 250 kts
2026-05-04 19:11 51.33876 6.69012 4419 ft 269 kts
2026-05-04 19:12 51.35770 6.69258 5244 ft 276 kts
2026-05-04 19:12 51.39655 6.69649 6998 ft 283 kts
2026-05-04 19:12 51.41635 6.69673 7842 ft 286 kts 355°
2026-05-04 19:13 51.43542 6.68790 8658 ft 289 kts 330°
2026-05-04 19:13 51.45233 6.67025 9520 ft 291 kts 325°
2026-05-04 19:13 51.46905 6.65143 10197 ft 300 kts 324°
2026-05-04 19:13 51.48676 6.63126 10418 ft 323 kts 324°
2026-05-04 19:14 51.50554 6.60977 10839 ft 337 kts 324°
2026-05-04 19:14 51.52475 6.58769 11485 ft 342 kts 324°
2026-05-04 19:14 51.54441 6.56502 12191 ft 346 kts 324°
2026-05-04 19:14 51.56381 6.54260 12885 ft 349 kts 324°
2026-05-04 19:15 51.58406 6.52082 13588 ft 353 kts 333°
2026-05-04 19:15 51.60738 6.50869 14212 ft 356 kts 353°
2026-05-04 19:15 51.63214 6.51009 14806 ft 358 kts 13°
2026-05-04 19:15 51.65522 6.52525 15385 ft 361 kts 34°
2026-05-04 19:16 51.67376 6.55258 15947 ft 363 kts 54°
2026-05-04 19:16 51.68523 6.58874 16515 ft 365 kts 75°
2026-05-04 19:16 51.68930 6.62921 17084 ft 368 kts 85°
2026-05-04 19:16 51.69211 6.67042 17675 ft 372 kts 85°
2026-05-04 19:17 51.69495 6.71213 18264 ft 376 kts 85°
2026-05-04 19:17 51.69782 6.75427 18784 ft 380 kts 85°
2026-05-04 19:17 51.70075 6.79683 19308 ft 384 kts 85°
2026-05-04 19:17 51.70420 6.83988 19835 ft 390 kts 81°
2026-05-04 19:18 51.71179 6.88214 20353 ft 396 kts 70°
2026-05-04 19:18 51.72427 6.92205 20848 ft 402 kts 58°
2026-05-04 19:18 51.74050 6.95839 21344 ft 407 kts 54°
2026-05-04 19:18 51.75771 6.99557 21844 ft 411 kts 54°
2026-05-04 19:19 51.77481 7.03287 22338 ft 415 kts 54°
2026-05-04 19:19 51.79175 7.07009 22830 ft 419 kts 54°
2026-05-04 19:19 51.80904 7.10827 23327 ft 423 kts 54°
2026-05-04 19:19 51.82646 7.14683 23755 ft 427 kts 54°
2026-05-04 19:20 51.84404 7.18573 23922 ft 429 kts 54°
2026-05-04 19:20 51.86088 7.21891 23977 ft 430 kts 47°
2026-05-04 19:20 51.88167 7.25392 23975 ft 431 kts 46°
2026-05-04 19:20 51.90232 7.28894 23968 ft 431 kts 47°
2026-05-04 19:21 51.92303 7.32424 23965 ft 431 kts 47°
2026-05-04 19:21 51.94381 7.35970 24313 ft 435 kts 47°
2026-05-04 19:21 51.96481 7.39550 24744 ft 438 kts 47°
2026-05-04 19:21 51.98591 7.43142 25133 ft 442 kts 46°
2026-05-04 19:22 52.00722 7.46762 25513 ft 445 kts 46°
2026-05-04 19:22 52.02863 7.50403 25889 ft 448 kts 46°
2026-05-04 19:22 52.05002 7.54041 26242 ft 452 kts 46°
2026-05-04 19:22 52.07206 7.57798 26610 ft 455 kts 46°
2026-05-04 19:23 52.09368 7.61491 26965 ft 458 kts 46°
2026-05-04 19:23 52.11582 7.65256 27312 ft 461 kts 46°
2026-05-04 19:23 52.13824 7.69020 27665 ft 464 kts 46°
2026-05-04 19:23 52.16090 7.72796 28020 ft 467 kts 45°
2026-05-04 19:24 52.18376 7.76593 28376 ft 470 kts 45°
2026-05-04 19:24 52.20697 7.80480 28723 ft 473 kts 46°
2026-05-04 19:24 52.22955 7.84304 28941 ft 476 kts 46°
2026-05-04 19:25 52.27530 7.92135 28974 ft 476 kts 45°
2026-05-04 19:25 52.30073 7.95564 28981 ft 474 kts 30°
2026-05-04 19:25 52.32951 7.98198 28973 ft 474 kts 26°
2026-05-04 19:26 52.38715 8.03284 28647 ft 463 kts 26°
2026-05-04 19:26 52.41522 8.05753 28322 ft 454 kts 26°
2026-05-04 19:26 52.44273 8.08176 27995 ft 445 kts 26°
2026-05-04 19:26 52.46982 8.10571 27677 ft 438 kts 26°
2026-05-04 19:27 52.49649 8.12936 27365 ft 434 kts 27°
2026-05-04 19:27 52.52293 8.15282 27052 ft 431 kts 27°
2026-05-04 19:27 52.54834 8.17864 26745 ft 429 kts 39°
2026-05-04 19:27 52.56949 8.21295 26443 ft 427 kts 47°
2026-05-04 19:28 52.58947 8.24885 26142 ft 425 kts 48°
2026-05-04 19:28 52.60927 8.28477 25844 ft 422 kts 48°
2026-05-04 19:28 52.62886 8.32057 25547 ft 420 kts 48°
2026-05-04 19:28 52.64834 8.35624 25252 ft 417 kts 48°
2026-05-04 19:29 52.66769 8.39168 24961 ft 415 kts 48°
2026-05-04 19:29 52.68692 8.42684 24670 ft 412 kts 48°
2026-05-04 19:29 52.70585 8.46139 24391 ft 410 kts 48°
2026-05-04 19:29 52.72492 8.49620 24112 ft 408 kts 48°
2026-05-04 19:30 52.74389 8.53088 23829 ft 406 kts 48°
2026-05-04 19:30 52.76273 8.56533 23552 ft 403 kts 48°
2026-05-04 19:30 52.77542 8.58859 23335 ft 402 kts 48°
2026-05-04 19:30 52.78148 8.59974 23229 ft 401 kts 48°